[[{"header":{"parameterUnit":"m.s-1","parameterCategory":1,"la1":30.2992,"la2":30.254,"lo1":-89.0895,"lo2":-89.0443,"dy":0.0025,"dx":0.0025,"nx":19,"ny":19,"refTime":"2026-05-19T09:00:00:Z","depth":0,"parameterNumber":2,"parameterNumberName":"U-component_of_WINDS"},"data":[0,0,0,-3.0858,-3.0859,-3.09,-3.09,-3.0966,-3.0967,0,0,0,0,0,0,0,0,0,0,0,-3.0855,-3.0856,-3.0858,-3.0859,-3.09,-3.09,-3.0966,-3.0967,0,0,0,0,0,0,0,0,0,0,0,-3.0855,-3.0856,-3.0857,-3.086,-3.09,-3.09,-3.0966,-3.093,0,0,0,0,0,0,0,0,0,0,-3.0888,-3.0894,-3.0856,-3.0857,-3.086,-3.09,-3.09,-3.0928,-3.0932,-3.0954,0,-3.0976,0,-3.0973,-3.0972,-3.0973,0,0,0,-3.0853,-3.0891,-3.0894,-3.0857,-3.086,-3.09,-3.088,-3.093,-3.0935,-3.096,-3.0977,-3.0979,-3.0974,-3.0973,-3.0973,-3.1123,-3.1124,0,0,-3.085,-3.0867,-3.0891,-3.0897,-3.0893,-3.0879,-3.0881,-3.0933,-3.0953,-3.0977,-3.0981,-3.0975,-3.0974,-3.0974,-3.1122,-3.1123,0,0,0,-3.0849,-3.0866,-3.0867,-3.0895,-3.0901,-3.088,-3.0883,-3.095,-3.0949,-3.0981,-3.0976,-3.0974,-3.0975,-3.1121,-3.1122,-3.1189,0,0,0,-3.0847,-3.0865,-3.0867,-3.0878,-3.0901,-3.0927,-3.0899,-3.0946,-3.0951,-3.0976,-3.0974,-3.0976,-3.112,-3.1122,-3.1185,-3.1218,0,0,0,-3.085,-3.0865,-3.0874,-3.0878,-3.0897,-3.0925,-3.0927,-3.0947,-3.0949,-3.0973,-3.0976,-3.1119,-3.1121,-3.1181,-3.1211,-3.1261,0,0,0,-3.0857,-3.0933,-3.0876,-3.0958,-3.0896,-3.0967,-3.0926,-3.0978,-3.1007,-3.0974,-3.112,-3.1122,-3.118,-3.1207,-3.1258,-3.1306,-3.1329,0,0,-3.0962,-3.0946,-3.0994,-3.0943,-3.1028,-3.0959,-3.1054,-3.1064,-3.1051,-3.1099,-3.1103,-3.1186,-3.1211,-3.1261,-3.1448,-3.1466,0,0,0,-3.1033,-3.1067,-3.1086,-3.1114,-3.1124,-3.1135,-3.1129,-3.1133,-3.1174,-3.1079,-3.1218,-3.1232,-3.126,-3.1283,-3.1298,-3.1321,-3.1134,-3.1133,-3.1133,-3.1205,-3.1184,-3.1261,-3.1245,-3.1274,-3.1267,-3.1288,-3.1292,-3.1262,-3.1296,-3.1309,-3.1426,-3.1453,-3.1464,-3.1489,-3.1334,-3.1335,-3.1335,-3.1335,-3.1357,-3.1401,-3.1361,-3.1421,-3.1398,-3.1448,-3.1445,-3.1423,-3.1466,-3.1414,-3.1438,-3.1382,-3.1484,-3.1504,-3.134,-3.1339,-3.1338,-3.1338,-3.1338,-3.1467,-3.1484,-3.1488,-3.1527,-3.156,-3.1541,-3.1585,-3.1563,-3.1542,-3.1566,-3.1578,-3.1577,-3.1573,-3.1574,-3.1574,-3.1575,-3.1575,-3.1575,-3.1576,-3.1579,-3.1581,-3.162,-3.1638,-3.1653,-3.1671,-3.1665,-3.168,-3.169,-3.1671,-3.1671,-3.1638,-3.1499,-3.1464,-3.1582,-3.1581,-3.158,-3.1579,-3.1579,-3.1738,-3.1699,-3.176,-3.1775,-3.1794,-3.1828,-3.1799,-3.1831,-3.184,-3.1862,-3.1824,-3.1725,-3.1707,-3.1695,-3.1665,-3.1829,-3.1829,-3.1829,-3.1829,-3.1831,-3.182,-3.1877,-3.1903,-3.1926,-3.1907,-3.1976,-3.1973,-3.1963,-3.1967,-3.1941,-3.19,-3.1889,-3.1877,-3.1861,-3.1834,-3.2036,-3.2036,-3.2036,-3.1927,-3.1918,-3.1981,-3.1971,-3.1984,-3.1995,-3.2059,-3.2091,-3.2072,-3.2044,-3.197,-3.1961,-3.1896,-3.1876,-3.1846,-3.1821,-3.177,0,0]},{"header":{"parameterUnit":"m.s-1","parameterCategory":1,"la1":30.2992,"la2":30.254,"lo1":-89.0895,"lo2":-89.0443,"dy":0.0025,"dx":0.0025,"nx":19,"ny":19,"refTime":"2026-05-19T09:00:00:Z","depth":0,"parameterNumber":3,"parameterNumberName":"V-component_of_WINDS"},"data":[0,0,0,1.345,1.345,1.3463,1.3463,1.3485,1.3485,0,0,0,0,0,0,0,0,0,0,0,1.3449,1.345,1.345,1.345,1.3463,1.3463,1.3485,1.3485,0,0,0,0,0,0,0,0,0,0,0,1.3449,1.345,1.345,1.345,1.3463,1.3463,1.3485,1.3473,0,0,0,0,0,0,0,0,0,0,1.346,1.3462,1.3449,1.345,1.345,1.3463,1.3463,1.3472,1.3474,1.3481,0,1.3489,0,1.3487,1.3487,1.3487,0,0,0,1.3448,1.3461,1.3462,1.345,1.3451,1.3463,1.3456,1.3473,1.3475,1.3483,1.3489,1.349,1.3488,1.3487,1.3487,1.3541,1.3541,0,0,1.3447,1.3453,1.3461,1.3463,1.3461,1.3456,1.3457,1.3474,1.3481,1.3489,1.349,1.3488,1.3487,1.3487,1.354,1.3541,0,0,0,1.3447,1.3453,1.3453,1.3462,1.3464,1.3457,1.3457,1.348,1.3479,1.349,1.3488,1.3487,1.3488,1.354,1.354,1.3565,0,0,0,1.3446,1.3453,1.3453,1.3457,1.3464,1.3472,1.3463,1.3478,1.348,1.3488,1.3487,1.3488,1.3539,1.354,1.3564,1.3576,0,0,0,1.3447,1.3453,1.3456,1.3457,1.3463,1.3472,1.3472,1.3479,1.3479,1.3487,1.3488,1.3539,1.354,1.3562,1.3574,1.3593,0,0,0,1.345,1.3477,1.3456,1.3485,1.3463,1.3487,1.3472,1.349,1.35,1.3487,1.3539,1.354,1.3562,1.3572,1.3591,1.361,1.3618,0,0,1.3487,1.3481,1.3498,1.348,1.351,1.3485,1.3519,1.3521,1.3516,1.3533,1.3534,1.3564,1.3573,1.3592,1.3663,1.3669,0,0,0,1.3512,1.3524,1.3531,1.3541,1.3544,1.3548,1.3545,1.3546,1.3561,1.3526,1.3576,1.3581,1.3592,1.3601,1.3606,1.3616,1.3544,1.3544,1.3544,1.3572,1.3565,1.3593,1.3588,1.3598,1.3595,1.3603,1.3604,1.3593,1.3605,1.361,1.3654,1.3664,1.3668,1.3678,1.3619,1.3619,1.3619,1.3619,1.3626,1.3642,1.3629,1.3651,1.3643,1.3661,1.3661,1.3652,1.3668,1.3649,1.3658,1.3638,1.3676,1.3684,1.3621,1.3621,1.3621,1.3621,1.362,1.3665,1.3672,1.3674,1.3689,1.3701,1.3695,1.3712,1.3704,1.3697,1.3706,1.3711,1.3711,1.371,1.3709,1.3709,1.3709,1.371,1.371,1.371,1.3705,1.3706,1.3721,1.3729,1.3735,1.3743,1.3742,1.3748,1.3753,1.3746,1.3746,1.3734,1.3681,1.3668,1.3712,1.3712,1.3711,1.3711,1.3711,1.3762,1.3749,1.3772,1.3779,1.3787,1.3801,1.3792,1.3805,1.3809,1.3818,1.3805,1.3767,1.376,1.3755,1.3744,1.3806,1.3806,1.3806,1.3806,1.3796,1.3792,1.3815,1.3826,1.3837,1.3831,1.3859,1.3859,1.3857,1.3859,1.3849,1.3834,1.383,1.3826,1.382,1.3809,1.3886,1.3886,1.3886,1.3831,1.3828,1.3853,1.3851,1.3858,1.3865,1.3891,1.3904,1.3899,1.3889,1.3861,1.3857,1.3833,1.3826,1.3815,1.3805,1.3786,0,0]}]]